When you browse on this site, cookies collect data to enhance your experience and personalize the content and advertising you see.
Visit our Privacy Policy to learn more. By continuing to use the site, you agree to this use of cookies and data.
  • In Denmark
  • List of Countries
  • For 7 days
  • Water Temperature
  • Satellite Maps
  • Weather Map
  • Weather Widgets
  • user-avatar
    Login

    Hourly Weather Newcastle

    Today, 20 April, Saturday

    Time Temperature Precipitation Wind Pressure Humidity
    00:00 +19°C° 0 mm 1 mps 769 mmHg 97%
    01:00 +19°C° 0 mm 1 mps 768 mmHg 98%
    02:00 +19°C° 0 mm 1 mps 768 mmHg 98%
    03:00 +19°C° 0 mm 1 mps 768 mmHg 98%
    04:00 +17°C° 0 mm 0 mps 768 mmHg 98%
    05:00 +19°C° 0 mm 1 mps 768 mmHg 98%
    06:00 +19°C° 0 mm 1 mps 768 mmHg 98%
    07:00 +19°C° 0 mm 1 mps 768 mmHg 98%
    08:00 +22°C° 0 mm 1 mps 769 mmHg 89%
    09:00 +24°C° 0 mm 1 mps 769 mmHg 79%
    10:00 +26°C° 0 mm 1 mps 769 mmHg 70%
    11:00 +27°C° 0 mm 2 mps 768 mmHg 66%
    12:00 +27°C° 0 mm 2 mps 768 mmHg 63%
    13:00 +28°C° 0 mm 3 mps 767 mmHg 59%
    14:00 +27°C° 0 mm 3 mps 767 mmHg 62%
    15:00 +27°C° 0 mm 3 mps 766 mmHg 65%
    16:00 +26°C° 0 mm 4 mps 766 mmHg 68%
    17:00 +24°C° 0 mm 3 mps 767 mmHg 76%
    18:00 +22°C° 0 mm 3 mps 767 mmHg 84%
    19:00 +20°C° 0 mm 3 mps 767 mmHg 91%
    20:00 +20°C° 0 mm 3 mps 768 mmHg 92%
    21:00 +20°C° 0 mm 3 mps 768 mmHg 93%
    22:00 +20°C° 0 mm 3 mps 768 mmHg 94%
    23:00 +20°C° 0 mm 3 mps 768 mmHg 94%

    Tomorrow, 21 April, Sunday

    Time Temperature Precipitation Wind Pressure Humidity
    00:00 +19°C° 0 mm 3 mps 767 mmHg 95%
    01:00 +19°C° 0 mm 3 mps 767 mmHg 96%
    02:00 +19°C° 0 mm 3 mps 767 mmHg 96%
    03:00 +18°C° 0 mm 3 mps 767 mmHg 97%
    04:00 +18°C° 0 mm 3 mps 767 mmHg 98%
    05:00 +18°C° 0 mm 2 mps 767 mmHg 97%
    06:00 +18°C° 0 mm 2 mps 767 mmHg 97%
    07:00 +18°C° 0 mm 2 mps 768 mmHg 97%
    08:00 +20°C° 0 mm 2 mps 768 mmHg 86%
    09:00 +22°C° 0 mm 3 mps 767 mmHg 75%
    10:00 +26°C° 0 mm 3 mps 767 mmHg 64%
    11:00 +26°C° 0 mm 4 mps 767 mmHg 61%
    12:00 +27°C° 0 mm 4 mps 766 mmHg 57%
    13:00 +28°C° 0 mm 5 mps 765 mmHg 54%
    14:00 +28°C° 0 mm 4 mps 765 mmHg 58%
    15:00 +27°C° 0 mm 4 mps 765 mmHg 62%
    16:00 +27°C° 0 mm 4 mps 765 mmHg 65%
    17:00 +25°C° 0 mm 4 mps 765 mmHg 71%
    18:00 +23°C° 0 mm 4 mps 766 mmHg 76%
    19:00 +21°C° 0 mm 5 mps 766 mmHg 82%
    20:00 +21°C° 0 mm 5 mps 766 mmHg 83%
    21:00 +21°C° 0 mm 5 mps 766 mmHg 84%
    22:00 +20°C° 0 mm 5 mps 766 mmHg 85%
    23:00 +20°C° 0 mm 5 mps 766 mmHg 86%

    Day after tomorrow, 22 April, Monday

    Time Temperature Precipitation Wind Pressure Humidity
    00:00 +20°C° 0 mm 5 mps 766 mmHg 86%
    01:00 +19°C° 0 mm 4 mps 766 mmHg 86%
    02:00 +19°C° 0 mm 4 mps 765 mmHg 86%
    03:00 +19°C° 0 mm 4 mps 765 mmHg 87%
    04:00 +18°C° 0 mm 4 mps 765 mmHg 87%
    05:00 +18°C° 0 mm 4 mps 765 mmHg 87%
    06:00 +18°C° 0 mm 4 mps 765 mmHg 87%
    07:00 +18°C° 0 mm 3 mps 766 mmHg 88%
    08:00 +20°C° 0 mm 3 mps 766 mmHg 80%
    09:00 +22°C° 0 mm 3 mps 766 mmHg 72%
    10:00 +24°C° 0 mm 3 mps 766 mmHg 64%
    11:00 +26°C° 0 mm 3 mps 766 mmHg 59%
    12:00 +27°C° 0 mm 3 mps 765 mmHg 54%
    13:00 +28°C° 0 mm 3 mps 765 mmHg 49%
    14:00 +28°C° 0 mm 3 mps 765 mmHg 51%
    15:00 +27°C° 0 mm 3 mps 765 mmHg 54%
    16:00 +27°C° 0 mm 4 mps 764 mmHg 56%
    17:00 +25°C° 0 mm 4 mps 765 mmHg 66%
    18:00 +22°C° 0 mm 4 mps 766 mmHg 76%
    19:00 +20°C° 0 mm 4 mps 766 mmHg 86%
    20:00 +20°C° 0 mm 3 mps 766 mmHg 89%
    21:00 +20°C° 0 mm 3 mps 767 mmHg 93%
    22:00 +20°C° 0 mm 3 mps 767 mmHg 96%
    23:00 +19°C° 0 mm 3 mps 767 mmHg 96%

    23 April, Tuesday

    Time Temperature Precipitation Wind Pressure Humidity
    00:00 +19°C° 0 mm 3 mps 767 mmHg 96%
    01:00 +19°C° 0 mm 3 mps 767 mmHg 96%
    02:00 +19°C° 0 mm 2 mps 767 mmHg 96%
    03:00 +18°C° 0 mm 2 mps 767 mmHg 96%
    04:00 +18°C° 0 mm 2 mps 767 mmHg 96%
    05:00 +18°C° 0 mm 2 mps 767 mmHg 95%
    06:00 +19°C° 0 mm 2 mps 768 mmHg 95%
    07:00 +19°C° 0 mm 2 mps 768 mmHg 95%
    08:00 +20°C° 0 mm 2 mps 768 mmHg 87%
    09:00 +23°C° 0 mm 2 mps 768 mmHg 78%
    10:00 +25°C° 0 mm 2 mps 768 mmHg 70%
    11:00 +25°C° 0 mm 2 mps 768 mmHg 65%
    12:00 +26°C° 0 mm 2 mps 768 mmHg 60%
    13:00 +27°C° 0 mm 2 mps 767 mmHg 56%
    14:00 +27°C° 0 mm 3 mps 767 mmHg 59%
    15:00 +26°C° 0 mm 3 mps 767 mmHg 63%
    16:00 +26°C° 0 mm 3 mps 766 mmHg 66%
    17:00 +25°C° 0 mm 3 mps 767 mmHg 74%
    18:00 +22°C° 0 mm 3 mps 767 mmHg 82%
    19:00 +21°C° 0 mm 2 mps 768 mmHg 90%
    20:00 +20°C° 0 mm 2 mps 768 mmHg 91%
    21:00 +20°C° 0 mm 2 mps 768 mmHg 93%
    22:00 +19°C° 0 mm 2 mps 768 mmHg 94%
    23:00 +19°C° 0.1 mm 2 mps 768 mmHg 94%

    24 April, Wednesday

    Time Temperature Precipitation Wind Pressure Humidity
    00:00 +19°C° 0.1 mm 2 mps 768 mmHg 94%
    01:00 +19°C° 0.1 mm 2 mps 767 mmHg 94%
    02:00 +18°C° 0.2 mm 2 mps 767 mmHg 95%
    03:00 +18°C° 0.2 mm 2 mps 767 mmHg 96%
    04:00 +18°C° 0.2 mm 2 mps 767 mmHg 97%
    05:00 +18°C° 0 mm 2 mps 767 mmHg 96%
    06:00 +18°C° 0 mm 2 mps 767 mmHg 96%
    07:00 +18°C° 0 mm 2 mps 768 mmHg 96%
    08:00 +20°C° 0 mm 2 mps 768 mmHg 85%
    09:00 +23°C° 0 mm 2 mps 768 mmHg 75%
    10:00 +25°C° 0 mm 2 mps 768 mmHg 64%
    11:00 +27°C° 0 mm 2 mps 767 mmHg 59%
    12:00 +28°C° 0 mm 2 mps 766 mmHg 53%
    13:00 +30°C° 0 mm 1 mps 766 mmHg 48%
    14:00 +29°C° 0 mm 2 mps 765 mmHg 51%
    15:00 +28°C° 0 mm 3 mps 765 mmHg 54%
    16:00 +27°C° 0 mm 4 mps 765 mmHg 58%
    17:00 +25°C° 0 mm 4 mps 765 mmHg 65%
    18:00 +23°C° 0 mm 4 mps 766 mmHg 72%
    19:00 +21°C° 0 mm 4 mps 766 mmHg 79%
    20:00 +20°C° 0 mm 4 mps 766 mmHg 83%
    21:00 +20°C° 0 mm 4 mps 766 mmHg 86%
    22:00 +19°C° 0 mm 4 mps 766 mmHg 90%
    23:00 +19°C° 0 mm 3 mps 766 mmHg 91%

    25 April, Thursday

    Time Temperature Precipitation Wind Pressure Humidity
    00:00 +18°C° 0 mm 3 mps 765 mmHg 92%
    01:00 +18°C° 0 mm 3 mps 765 mmHg 94%
    02:00 +18°C° 0 mm 3 mps 765 mmHg 93%
    03:00 +17°C° 0 mm 2 mps 764 mmHg 93%
    04:00 +17°C° 0 mm 2 mps 764 mmHg 92%
    05:00 +17°C° 0 mm 2 mps 764 mmHg 88%
    06:00 +18°C° 0 mm 3 mps 765 mmHg 84%
    07:00 +18°C° 0 mm 3 mps 765 mmHg 80%
    08:00 +21°C° 0 mm 3 mps 765 mmHg 71%
    09:00 +24°C° 0 mm 3 mps 765 mmHg 61%
    10:00 +27°C° 0 mm 2 mps 765 mmHg 52%
    11:00 +28°C° 0 mm 3 mps 764 mmHg 51%
    12:00 +28°C° 0 mm 4 mps 764 mmHg 50%
    13:00 +29°C° 0 mm 4 mps 763 mmHg 48%
    14:00 +27°C° 0 mm 4 mps 763 mmHg 57%
    15:00 +26°C° 0 mm 4 mps 763 mmHg 66%
    16:00 +23°C° 0 mm 4 mps 763 mmHg 75%
    17:00 +22°C° 0.8 mm 4 mps 764 mmHg 80%
    18:00 +21°C° 0.8 mm 3 mps 764 mmHg 86%
    19:00 +20°C° 0.8 mm 3 mps 765 mmHg 92%
    20:00 +20°C° 1 mm 2 mps 765 mmHg 93%
    21:00 +19°C° 1 mm 2 mps 765 mmHg 95%
    22:00 +20°C° 1 mm 1 mps 765 mmHg 97%
    23:00 +20°C° 0.2 mm 1 mps 765 mmHg 97%
    Show more